Home   Weather   Vancouver   Past weeks
Flag for Canada

Past Weather in Vancouver, British Columbia, Canada — Yesterday and Last 2 Weeks

Now
45 °F

Passing clouds.


Feels Like: 39 °F
Forecast: 58 / 38 °F
Wind: 10 mph from Northwest

Location: Vancouver International Airport

Current Time: Apr 8, 2020 at 8:42:13 am

Latest Report: Apr 8, 2020 at 8:00 am


Visibility: 20 mi

Pressure: 30.34 "Hg

Humidity: 76%

Dew Point: 37 °F

Location of VancouverLocation

Past Weather in Vancouver — Graph

°F

Vancouver Temperature Yesterday

Maximum temperature yesterday: 54 °F (at 2:00 pm)
Minimum temperature yesterday: 41 °F (at 12:00 am)
Average temperature yesterday: 47 °F

High & Low Weather Summary for the Past Weeks

 TemperatureHumidityPressure
High55 °F (Mar 29, 3:00 pm)100% (Mar 27, 8:00 am)30.34 "Hg (Mar 27, 8:00 am)
Low34 °F (Apr 6, 7:00 am)46% (Apr 4, 2:00 pm)29.47 "Hg (Mar 30, 4:00 am)
Average44 °F77%29.95 "Hg
* Reported Mar 24 7:00 am — Apr 8 7:00 am, Vancouver. Weather by CustomWeather, © 2020

Note: Actual official high and low records may vary slightly from our data, if they occured in-between our weather recording intervals... More about our weather records

Vancouver Weather History for the Previous 24 Hours

Scroll right to see more
 ConditionsComfort  
Time TempWeatherWind HumidityBarometerVisibility
7:00 am
Wed, Apr 8
39 °FPassing clouds.2 mph75%30.34 "Hg20 mi
6:00 am36 °FPassing clouds.2 mph87%30.34 "Hg20 mi
5:00 am36 °FClear.No wind87%30.33 "Hg20 mi
4:00 am36 °FPassing clouds.2 mph81%30.33 "Hg20 mi
3:00 am41 °FPassing clouds.2 mph70%30.32 "Hg20 mi
2:00 am41 °FPassing clouds.2 mph66%30.32 "Hg20 mi
1:00 am41 °FPassing clouds.5 mph66%30.31 "Hg20 mi
12:00 am45 °FClear.3 mph61%30.30 "Hg20 mi
11:00 pm
Tue, Apr 7
45 °FClear.2 mph66%30.30 "Hg20 mi
10:00 pm45 °FClear.3 mph71%30.29 "Hg20 mi
9:00 pm48 °FClear.3 mph58%30.27 "Hg20 mi
8:00 pm48 °FClear.No wind66%30.26 "Hg30 mi
7:00 pm50 °FSunny.6 mph58%30.26 "Hg30 mi
6:00 pm52 °FPassing clouds.8 mph50%30.25 "Hg20 mi
5:00 pm54 °FPassing clouds.10 mph51%30.25 "Hg20 mi
4:00 pm54 °FPassing clouds.12 mph51%30.25 "Hg20 mi
3:00 pm52 °FPassing clouds.12 mph58%30.25 "Hg20 mi
2:00 pm54 °FPassing clouds.14 mph54%30.24 "Hg20 mi
1:00 pm52 °FPassing clouds.16 mph62%30.24 "Hg20 mi
12:00 pm50 °FPassing clouds.12 mph67%30.24 "Hg20 mi
11:00 am50 °FPassing clouds.17 mph67%30.23 "Hg20 mi
10:00 am48 °FPartly sunny.17 mph71%30.21 "Hg20 mi
9:00 am46 °FBroken clouds.18 mph76%30.19 "Hg20 mi
8:00 am46 °FPartly sunny.16 mph76%30.18 "Hg20 mi
Weather by CustomWeather, © 2020

See weather overview

Advertising